Time,TemperatureF,DewpointF,PressureIn,WindDirection,WindDirectionDegrees,WindSpeedMPH,WindSpeedGustMPH,Humidity,HourlyPrecipIn,Conditions,Clouds,dailyrainin,SolarRadiationWatts/m^2,SoftwareType,DateUTC
2013-03-31 00:00:00,48.0,48.0,-100.00,SW,234,3.0,6.0,99,0.00,,,0.23,0.000000,,2013-03-31 05:00:00,
2013-03-31 00:22:00,48.0,48.0,-100.00,SW,234,3.0,6.0,99,0.00,,,0.23,0.000000,,2013-03-31 05:22:00,
2013-03-31 00:32:00,48.0,48.0,-100.00,SW,234,3.0,6.0,99,0.00,,,0.23,0.000000,,2013-03-31 05:32:00,
2013-03-31 00:42:00,48.0,48.0,-100.00,SW,234,3.0,6.0,99,0.00,,,0.23,0.000000,,2013-03-31 05:42:00,
2013-03-31 00:53:00,48.0,48.0,-100.00,SW,234,3.0,6.0,99,0.00,,,0.23,0.000000,,2013-03-31 05:53:00,
2013-03-31 01:00:00,48.0,48.0,-100.00,SSW,208,4.0,6.0,99,0.00,,,0.23,0.000000,,2013-03-31 06:00:00,
2013-03-31 01:33:00,48.0,48.0,-100.00,SSW,208,4.0,6.0,99,0.00,,,0.23,0.000000,,2013-03-31 06:33:00,
2013-03-31 01:42:00,48.0,48.0,-100.00,SSW,208,4.0,6.0,99,0.00,,,0.23,0.000000,,2013-03-31 06:42:00,
2013-03-31 01:52:00,48.0,48.0,-100.00,SSW,208,4.0,6.0,99,0.00,,,0.23,0.000000,,2013-03-31 06:52:00,
2013-03-31 11:00:00,61.0,55.0,-100.00,WNW,287,2.0,6.0,82,-99.99,,,0.22,560.000000,,2013-03-31 16:00:00,
2013-03-31 11:34:00,61.0,55.0,-100.00,WNW,287,2.0,6.0,82,-99.99,,,0.22,560.000000,,2013-03-31 16:34:00,
2013-03-31 11:43:00,61.0,55.0,-100.00,WNW,287,2.0,6.0,82,-99.99,,,0.22,560.000000,,2013-03-31 16:43:00,
2013-03-31 11:53:00,61.0,55.0,-100.00,WNW,287,2.0,6.0,82,-99.99,,,0.22,560.000000,,2013-03-31 16:53:00,
2013-03-31 12:00:00,64.0,43.0,-100.00,NNW,342,6.0,12.0,47,0.00,,,0.22,801.000000,,2013-03-31 17:00:00,
2013-03-31 12:33:00,64.0,43.0,-100.00,NNW,342,6.0,12.0,47,0.00,,,0.22,801.000000,,2013-03-31 17:33:00,
2013-03-31 12:43:00,64.0,43.0,-100.00,NNW,342,6.0,12.0,47,0.00,,,0.22,801.000000,,2013-03-31 17:43:00,
2013-03-31 12:52:00,64.0,43.0,-100.00,NNW,342,6.0,12.0,47,0.00,,,0.22,801.000000,,2013-03-31 17:52:00,
2013-03-31 13:00:00,66.0,43.0,-100.00,WNW,298,8.0,13.0,43,0.00,,,0.22,822.000000,,2013-03-31 18:00:00,
2013-03-31 13:33:00,66.0,43.0,-100.00,WNW,298,8.0,13.0,43,0.00,,,0.22,822.000000,,2013-03-31 18:33:00,
2013-03-31 13:42:00,66.0,43.0,-100.00,WNW,298,8.0,13.0,43,0.00,,,0.22,822.000000,,2013-03-31 18:42:00,
2013-03-31 13:53:00,66.0,43.0,-100.00,WNW,298,8.0,13.0,43,0.00,,,0.22,822.000000,,2013-03-31 18:53:00,
2013-03-31 14:00:00,66.0,42.0,-100.00,WNW,300,7.0,10.0,41,0.00,,,0.22,552.000000,,2013-03-31 19:00:00,
2013-03-31 14:33:00,66.0,42.0,-100.00,WNW,300,7.0,10.0,41,0.00,,,0.22,552.000000,,2013-03-31 19:33:00,
2013-03-31 14:43:00,66.0,42.0,-100.00,WNW,300,7.0,10.0,41,0.00,,,0.22,552.000000,,2013-03-31 19:43:00,
2013-03-31 14:54:00,66.0,42.0,-100.00,WNW,300,7.0,10.0,41,0.00,,,0.22,552.000000,,2013-03-31 19:54:00,
2013-03-31 15:00:00,66.0,36.0,-100.00,WSW,258,6.0,14.0,33,0.00,,,0.22,418.000000,,2013-03-31 20:00:00,
2013-03-31 15:34:00,66.0,36.0,-100.00,WSW,258,6.0,14.0,33,0.00,,,0.22,418.000000,,2013-03-31 20:34:00,
2013-03-31 15:43:00,66.0,36.0,-100.00,WSW,258,6.0,14.0,33,0.00,,,0.22,418.000000,,2013-03-31 20:43:00,
2013-03-31 15:53:00,66.0,36.0,-100.00,WSW,258,6.0,14.0,33,0.00,,,0.22,418.000000,,2013-03-31 20:53:00,
2013-03-31 16:00:00,65.0,36.0,-100.00,WNW,283,7.0,18.0,34,0.00,,,0.19,328.000000,,2013-03-31 21:00:00,
2013-03-31 16:34:00,65.0,36.0,-100.00,WNW,283,7.0,18.0,34,0.00,,,0.19,328.000000,,2013-03-31 21:34:00,
2013-03-31 16:43:00,65.0,36.0,-100.00,WNW,283,7.0,18.0,34,0.00,,,0.19,328.000000,,2013-03-31 21:43:00,
2013-03-31 16:54:00,65.0,36.0,-100.00,WNW,283,7.0,18.0,34,0.00,,,0.19,328.000000,,2013-03-31 21:54:00,
2013-03-31 17:00:00,68.0,34.0,-100.00,West,266,12.0,16.0,28,0.00,,,0.11,372.000000,,2013-03-31 22:00:00,
2013-03-31 17:24:00,68.0,34.0,-100.00,West,266,12.0,16.0,28,0.00,,,0.11,372.000000,,2013-03-31 22:24:00,
2013-03-31 17:33:00,68.0,34.0,-100.00,West,266,12.0,16.0,28,0.00,,,0.11,372.000000,,2013-03-31 22:33:00,
2013-03-31 17:43:00,68.0,34.0,-100.00,West,266,12.0,16.0,28,0.00,,,0.11,372.000000,,2013-03-31 22:43:00,
2013-03-31 17:53:00,68.0,34.0,-100.00,West,266,12.0,16.0,28,0.00,,,0.11,372.000000,,2013-03-31 22:53:00,
2013-03-31 18:00:00,65.0,28.0,-100.00,WNW,284,12.0,19.0,25,0.00,,,0.00,311.000000,,2013-03-31 23:00:00,
2013-03-31 18:33:00,65.0,28.0,-100.00,WNW,284,12.0,19.0,25,0.00,,,0.00,311.000000,,2013-03-31 23:33:00,
2013-03-31 18:43:00,65.0,28.0,-100.00,WNW,284,12.0,19.0,25,0.00,,,0.00,311.000000,,2013-03-31 23:43:00,
2013-03-31 18:53:00,65.0,28.0,-100.00,WNW,284,12.0,19.0,25,0.00,,,0.00,311.000000,,2013-03-31 23:53:00,
2013-03-31 19:00:00,64.0,29.0,-100.00,WNW,282,6.0,15.0,27,0.00,,,0.00,129.000000,,2013-04-01 00:00:00,
2013-03-31 19:23:00,64.0,29.0,-100.00,WNW,282,6.0,15.0,27,0.00,,,0.00,129.000000,,2013-04-01 00:23:00,
2013-03-31 19:33:00,64.0,29.0,-100.00,WNW,282,6.0,15.0,27,0.00,,,0.00,129.000000,,2013-04-01 00:33:00,
2013-03-31 19:43:00,64.0,29.0,-100.00,WNW,282,6.0,15.0,27,0.00,,,0.00,129.000000,,2013-04-01 00:43:00,
2013-03-31 19:53:00,64.0,29.0,-100.00,WNW,282,6.0,15.0,27,0.00,,,0.00,129.000000,,2013-04-01 00:53:00,
2013-03-31 20:00:00,58.0,29.0,-100.00,WSW,257,3.0,12.0,33,0.00,,,0.00,7.000000,,2013-04-01 01:00:00,
2013-03-31 20:33:00,58.0,29.0,-100.00,WSW,257,3.0,12.0,33,0.00,,,0.00,7.000000,,2013-04-01 01:33:00,
2013-03-31 20:43:00,58.0,29.0,-100.00,WSW,257,3.0,12.0,33,0.00,,,0.00,7.000000,,2013-04-01 01:43:00,
2013-03-31 20:53:00,58.0,29.0,-100.00,WSW,257,3.0,12.0,33,0.00,,,0.00,7.000000,,2013-04-01 01:53:00,
2013-03-31 21:00:00,54.0,30.0,-100.00,WNW,282,0.0,2.0,40,0.00,,,0.00,0.000000,,2013-04-01 02:00:00,
2013-03-31 21:33:00,54.0,30.0,-100.00,WNW,282,0.0,2.0,40,0.00,,,0.00,0.000000,,2013-04-01 02:33:00,
2013-03-31 21:43:00,54.0,30.0,-100.00,WNW,282,0.0,2.0,40,0.00,,,0.00,0.000000,,2013-04-01 02:43:00,
2013-03-31 21:53:00,54.0,30.0,-100.00,WNW,282,0.0,2.0,40,0.00,,,0.00,0.000000,,2013-04-01 02:53:00,
2013-03-31 22:00:00,53.0,37.0,-100.00,NW,316,4.0,5.0,54,0.00,,,0.00,0.000000,,2013-04-01 03:00:00,
2013-03-31 22:35:00,53.0,37.0,-100.00,NW,316,4.0,5.0,54,0.00,,,0.00,0.000000,,2013-04-01 03:35:00,
2013-03-31 22:43:00,53.0,37.0,-100.00,NW,316,4.0,5.0,54,0.00,,,0.00,0.000000,,2013-04-01 03:43:00,
2013-03-31 22:53:00,53.0,37.0,-100.00,NW,316,4.0,5.0,54,0.00,,,0.00,0.000000,,2013-04-01 03:53:00,
2013-03-31 23:00:00,55.0,37.0,-100.00,NNW,340,9.0,15.0,51,0.00,,,0.00,0.000000,,2013-04-01 04:00:00,
2013-03-31 23:33:00,55.0,37.0,-100.00,NNW,340,9.0,15.0,51,0.00,,,0.00,0.000000,,2013-04-01 04:33:00,
2013-03-31 23:43:00,55.0,37.0,-100.00,NNW,340,9.0,15.0,51,0.00,,,0.00,0.000000,,2013-04-01 04:43:00,
2013-03-31 23:53:00,55.0,37.0,-100.00,NNW,340,9.0,15.0,51,0.00,,,0.00,0.000000,,2013-04-01 04:53:00,